Araijuku, Japan

11:48 AM JST on June 21, 2018 (GMT +0900)
Tokyo (Haneda) International | | Change Station

Elev 26 ft 35.55 °N, 139.78 °E | Updated 18 minutes ago

Overcast
Overcast
73 °F
Feels Like 73 °F
N
8
Wind Variable Wind from South

Today
High -- | Low -- °F
--% Chance of Precip.
Yesterday
High -- | Low -- °F
Precip. -- in
Pressure 29.59 in
Visibility 6.2 miles
Clouds Few 800 ft
Mostly Cloudy 2500 ft
Mostly Cloudy 6000 ft
Dew Point 68 °F
Humidity 83%
Rainfall 0.00 in
Snow Depth Not available.
4:25 AM 6:59 PM
First Quarter, 57% visible
METAR RJTT 210230Z 17007KT 9999 -RA FEW008 BKN025 BKN060 23/20 Q1002 NOSIG RMK 1ST008 5SC025 7SC060 A2961
Pressure 29.59 in
Visibility 6.2 miles
Clouds Few 800 ft
Mostly Cloudy 2500 ft
Mostly Cloudy 6000 ft
Dew Point 68 °F
Humidity 83%
Rainfall 0.00 in
Snow Depth Not available.
4:25 AM 6:59 PM
First Quarter, 57% visible
METAR RJTT 210230Z 17007KT 9999 -RA FEW008 BKN025 BKN060 23/20 Q1002 NOSIG RMK 1ST008 5SC025 7SC060 A2961

Get Severe Weather Alerts

Thanks for signing up!

Be on the lookout for a verification email in your inbox.

You'll start receiving the daily forecast at 6 AM.

×

10-Day Weather Forecast

No radar image for this location.
×

Almanac

Astronomy

Jun. 21, 2018 Rise Set
Actual Time
Civil Twilight
Nautical Twilight
Astronomical Twilight
Moon
Length of Visible Light
Length of Day
Tomorrow will be .
, % of the Moon is Illuminated

Today's Extremes

Country Highs Country Lows

Community

WunderPhotos

Category 6

Welcome to Category 6. This is the collective home for Weather Underground's featured writeups by Dr. Jeff Masters (right), Bob Henson (left), Chris Burt, and other regular contributors.

Nearby

Air Quality

  Air Quality AQ Index Pollutant
Not available.

Snow Depth

Station Depth Elevation

Earthquake Activity

City Distance Mag. Time & Date
Minimum magnitude displayed is 2.5.

Coastal Water Temperatures

Place Temperature

Stations

Nearby Weather Stations

Station Location Temp. Windchill Dew Point Humidity Wind Precip. Elev Updated Type